Location: Ferchesar
(52.6477°N, 12.4298°E)
Time: 21:41:37
(UTC+02:00)

Transit 4A - Pass Details

Date: 05 March 2021
Orbit: 868 x 976 km, 66.8° (Epoch: 10 April)

Event Time Altitude Azimuth Distance (km) Brightness Sun altitude
Rises 16:07:12 0° 313° (NW) 3,620 11.2 14.7°
Reaches altitude 10° 16:10:09 10° 324° (NW) 2,656 10.4 14.3°
Maximum altitude 16:15:28 29° 24° (NNE) 1,619 8.9 13.6°
Drops below altitude 10° 16:20:38 10° 84° (E) 2,584 9.7 12.9°
Sets 16:23:28 0° 95° (E) 3,506 10.4 12.6°
